,,,PA_Meas_PMT16A,,PR_Meas_QMR101_102,,RH_Meas_QMH101,,SR_Meas_QMS101,,TA_Meas_QMH101,,GenWind,,GenWind,
date,time,status,PA,status,PR,status,RH,status,SR,status,TA,status,DirAvg,status,SpdAvg,
2010-10-27, 00:00:05,VALID,1000.1,VALID,0,VALID,90.8459,VALID,0,VALID,23.8963,VALID,124,VALID,0,
2010-10-27, 00:01:05,VALID,1000.1,VALID,0,VALID,90.8459,VALID,0,VALID,23.8963,VALID,124,VALID,0,
2010-10-27, 00:02:05,VALID,1000.1,VALID,0,VALID,90.884,VALID,0,VALID,23.8573,VALID,124,VALID,0,
2010-10-27, 00:03:05,VALID,1000.1,VALID,0,VALID,90.9146,VALID,0,VALID,23.8573,VALID,124,VALID,0,
2010-10-27, 00:04:05,VALID,1000.09,VALID,0,VALID,90.9756,VALID,0,VALID,23.8378,VALID,124,VALID,0,
2010-10-27, 00:05:05,VALID,1000.07,VALID,0,VALID,91.0519,VALID,0,VALID,23.8378,VALID,124,VALID,0.315625,
2010-10-27, 00:06:05,VALID,1000.03,VALID,0,VALID,91.1129,VALID,0,VALID,23.8378,VALID,124,VALID,0.324219,
2010-10-27, 00:07:05,VALID,1000.02,VALID,0,VALID,91.1434,VALID,0,VALID,23.8573,VALID,124,VALID,0.451562,
2010-10-27, 00:08:05,VALID,1000.04,VALID,0,VALID,91.1968,VALID,0,VALID,23.8573,VALID,124,VALID,0.496875,
2010-10-27, 00:09:05,VALID,1000.07,VALID,0,VALID,91.2808,VALID,0.112286,VALID,23.8768,VALID,124,VALID,0.471094,
2010-10-27, 00:10:05,VALID,1000.07,VALID,0,VALID,91.3571,VALID,0,VALID,23.875,VALID,124,VALID,0.48125,
2010-10-27, 00:11:05,VALID,1000.1,VALID,0,VALID,91.441,VALID,0,VALID,23.8555,VALID,124,VALID,0.446094,
2010-10-27, 00:12:05,VALID,1000.11,VALID,0,VALID,91.502,VALID,0,VALID,23.8165,VALID,124,VALID,0.360938,
2010-10-27, 00:13:05,VALID,1000.11,VALID,0,VALID,91.5402,VALID,0.112286,VALID,23.8165,VALID,124,VALID,0.444531,
2010-10-27, 00:14:05,VALID,1000.13,VALID,0,VALID,91.6241,VALID,0.112286,VALID,23.797,VALID,124,VALID,0.511719,
2010-10-27, 00:15:05,VALID,1000.12,VALID,0,VALID,91.7385,VALID,0.112286,VALID,23.7775,VALID,124,VALID,0.468359,
2010-10-27, 00:16:05,VALID,1000.09,VALID,0,VALID,91.853,VALID,0.112286,VALID,23.7775,VALID,124,VALID,0.442969,
2010-10-27, 00:17:05,VALID,1000.1,VALID,0,VALID,91.9827,VALID,0,VALID,23.7775,VALID,124,VALID,0.428906,
2010-10-27, 00:18:05,VALID,1000.1,VALID,0,VALID,92.0971,VALID,0,VALID,23.7579,VALID,124,VALID,0.491016,
2010-10-27, 00:19:05,VALID,1000.1,VALID,0,VALID,92.2116,VALID,0,VALID,23.7775,VALID,124,VALID,0.520703,
2010-10-27, 00:20:05,VALID,1000.09,VALID,0,VALID,92.2879,VALID,0,VALID,23.7775,VALID,124,VALID,0.427734,
2010-10-27, 00:21:05,VALID,1000.07,VALID,0,VALID,92.3337,VALID,0,VALID,23.7775,VALID,124,VALID,0.398828,
2010-10-27, 00:22:05,VALID,1000.05,VALID,0,VALID,92.3642,VALID,0,VALID,23.7988,VALID,124,VALID,0.304297,
2010-10-27, 00:23:05,VALID,1000.02,VALID,0,VALID,92.3718,VALID,0,VALID,23.7579,VALID,124,VALID,0.224609,
2010-10-27, 00:24:05,VALID,999.994,VALID,0,VALID,92.3718,VALID,0,VALID,23.7579,VALID,124,VALID,0.170703,
2010-10-27, 00:25:05,VALID,999.927,VALID,0,VALID,92.3642,VALID,0.112286,VALID,23.7579,VALID,124,VALID,0.0269531,
2010-10-27, 00:26:05,VALID,999.934,VALID,0,VALID,92.3489,VALID,0.112286,VALID,23.7189,VALID,124,VALID,0,
2010-10-27, 00:27:05,VALID,999.913,VALID,0,VALID,92.3337,VALID,0.112286,VALID,23.6799,VALID,124,VALID,0,
2010-10-27, 00:28:05,VALID,999.905,VALID,0,VALID,92.3184,VALID,0,VALID,23.6799,VALID,124,VALID,0,
2010-10-27, 00:29:05,VALID,999.881,VALID,0,VALID,92.3184,VALID,0,VALID,23.6604,VALID,124,VALID,0,
2010-10-27, 00:30:05,VALID,999.852,VALID,0,VALID,92.3871,VALID,0.112286,VALID,23.6799,VALID,124,VALID,0.259375,
2010-10-27, 00:31:05,VALID,999.811,VALID,0,VALID,92.4405,VALID,0.112286,VALID,23.6994,VALID,124,VALID,0.292578,
2010-10-27, 00:32:05,VALID,999.764,VALID,0,VALID,92.5168,VALID,0,VALID,23.7189,VALID,124,VALID,0.313672,
2010-10-27, 00:33:05,VALID,999.728,VALID,0,VALID,92.532,VALID,0.112286,VALID,23.6994,VALID,124,VALID,0.244922,
2010-10-27, 00:34:05,VALID,999.679,VALID,0,VALID,92.5549,VALID,0.112286,VALID,23.6994,VALID,124,VALID,0.158984,
2010-10-27, 00:35:05,VALID,999.633,VALID,0,VALID,92.5549,VALID,0,VALID,23.6799,VALID,124,VALID,0.152734,
2010-10-27, 00:36:05,VALID,999.597,VALID,0,VALID,92.5702,VALID,0,VALID,23.6994,VALID,124,VALID,0.148438,
2010-10-27, 00:37:05,VALID,999.541,VALID,0,VALID,92.5931,VALID,0,VALID,23.6994,VALID,124,VALID,0.246875,
2010-10-27, 00:38:05,VALID,999.504,VALID,0,VALID,92.6007,VALID,0,VALID,23.6994,VALID,124,VALID,0.351172,
2010-10-27, 00:39:05,VALID,999.493,VALID,0,VALID,92.5626,VALID,0,VALID,23.6817,VALID,124,VALID,0.316016,
2010-10-27, 00:40:05,VALID,999.465,VALID,0,VALID,92.4481,VALID,0,VALID,23.6817,VALID,124,VALID,0.324609,
2010-10-27, 00:41:05,VALID,999.454,VALID,0,VALID,92.2803,VALID,0,VALID,23.6817,VALID,124,VALID,0.380859,
2010-10-27, 00:42:05,VALID,999.41,VALID,0,VALID,92.1124,VALID,0,VALID,23.6817,VALID,124,VALID,0.289063,
2010-10-27, 00:43:05,VALID,999.385,VALID,0,VALID,91.9522,VALID,0,VALID,23.6817,VALID,124,VALID,0.410156,
2010-10-27, 00:44:05,VALID,999.396,VALID,0,VALID,91.7996,VALID,0,VALID,23.6817,VALID,124,VALID,0.495313,
2010-10-27, 00:45:05,VALID,999.373,VALID,0,VALID,91.7309,VALID,0,VALID,23.6817,VALID,124,VALID,0.546094,
2010-10-27, 00:46:05,VALID,999.376,VALID,0,VALID,91.7538,VALID,0,VALID,23.6994,VALID,124,VALID,0.630469,
2010-10-27, 00:47:05,VALID,999.369,VALID,0,VALID,91.7309,VALID,0,VALID,23.7207,VALID,124,VALID,0.727734,
2010-10-27, 00:48:05,VALID,999.355,VALID,0,VALID,91.5326,VALID,0,VALID,23.7207,VALID,127,VALID,0.991406,
2010-10-27, 00:49:05,VALID,999.352,VALID,0,VALID,91.3037,VALID,0,VALID,23.7225,VALID,126,VALID,0.835938,
2010-10-27, 00:50:05,VALID,999.325,VALID,0,VALID,91.1053,VALID,0,VALID,23.7207,VALID,126,VALID,0.623828,
2010-10-27, 00:51:05,VALID,999.308,VALID,0,VALID,90.9222,VALID,0,VALID,23.7012,VALID,126,VALID,0.711328,
2010-10-27, 00:52:05,VALID,999.28,VALID,0,VALID,90.7543,VALID,0,VALID,23.6817,VALID,126,VALID,0.4375,
2010-10-27, 00:53:05,VALID,999.257,VALID,0,VALID,90.6246,VALID,0,VALID,23.6817,VALID,126,VALID,0.335547,
2010-10-27, 00:54:05,VALID,999.27,VALID,0,VALID,90.556,VALID,0,VALID,23.6622,VALID,126,VALID,0.274609,
2010-10-27, 00:55:05,VALID,999.241,VALID,0,VALID,90.472,VALID,0,VALID,23.6232,VALID,126,VALID,0.351953,
2010-10-27, 00:56:05,VALID,999.242,VALID,0,VALID,90.5178,VALID,0,VALID,23.6427,VALID,126,VALID,0.184375,
2010-10-27, 00:57:05,VALID,999.234,VALID,0,VALID,90.5941,VALID,0,VALID,23.6232,VALID,126,VALID,0.321094,
2010-10-27, 00:58:05,VALID,999.235,VALID,0,VALID,90.7391,VALID,0,VALID,23.6036,VALID,126,VALID,0.362109,
2010-10-27, 00:59:05,VALID,999.245,VALID,0,VALID,90.8993,VALID,0,VALID,23.6036,VALID,126,VALID,0.332422,
2010-10-27, 01:00:05,VALID,999.213,VALID,0,VALID,91.029,VALID,0,VALID,23.5841,VALID,126,VALID,0.290234,
2010-10-27, 01:01:05,VALID,999.193,VALID,0,VALID,91.1282,VALID,0,VALID,23.5646,VALID,126,VALID,0.242188,
2010-10-27, 01:02:05,VALID,999.149,VALID,0,VALID,91.1892,VALID,0,VALID,23.5451,VALID,126,VALID,0.219531,
2010-10-27, 01:03:05,VALID,999.163,VALID,0,VALID,91.2197,VALID,0,VALID,23.5256,VALID,126,VALID,0.293359,
2010-10-27, 01:04:05,VALID,999.148,VALID,0,VALID,91.2503,VALID,0,VALID,23.5256,VALID,126,VALID,0.211328,
2010-10-27, 01:05:05,VALID,999.155,VALID,0,VALID,91.3037,VALID,0,VALID,23.5061,VALID,126,VALID,0,
2010-10-27, 01:06:05,VALID,999.169,VALID,0,VALID,91.3342,VALID,0,VALID,23.5061,VALID,126,VALID,0.0015625,
2010-10-27, 01:07:05,VALID,999.145,VALID,0,VALID,91.3037,VALID,0,VALID,23.4866,VALID,126,VALID,0.304297,
2010-10-27, 01:08:05,VALID,999.21,VALID,0,VALID,91.2884,VALID,0,VALID,23.4671,VALID,126,VALID,0.502734,
2010-10-27, 01:09:05,VALID,999.185,VALID,0,VALID,91.2197,VALID,0,VALID,23.4475,VALID,126,VALID,0.677734,
2010-10-27, 01:10:05,VALID,999.225,VALID,0,VALID,91.09,VALID,0,VALID,23.4884,VALID,126,VALID,0.592969,
2010-10-27, 01:11:05,VALID,999.24,VALID,0,VALID,90.968,VALID,0,VALID,23.4866,VALID,126,VALID,0.644141,
2010-10-27, 01:12:05,VALID,999.297,VALID,0,VALID,90.8459,VALID,0,VALID,23.5469,VALID,126,VALID,0.558594,
2010-10-27, 01:13:05,VALID,999.321,VALID,0,VALID,90.8001,VALID,0,VALID,23.5451,VALID,126,VALID,0.521094,
2010-10-27, 01:14:05,VALID,999.339,VALID,0,VALID,90.678,VALID,0,VALID,23.5841,VALID,126,VALID,0.483984,
2010-10-27, 01:15:05,VALID,999.38,VALID,0,VALID,90.5941,VALID,0,VALID,23.625,VALID,120,VALID,0.648047,
2010-10-27, 01:16:05,VALID,999.414,VALID,0,VALID,90.4949,VALID,0,VALID,23.6232,VALID,114,VALID,0.628516,
2010-10-27, 01:17:05,VALID,999.413,VALID,0,VALID,90.3957,VALID,0,VALID,23.6622,VALID,114,VALID,0.536328,
2010-10-27, 01:18:05,VALID,999.441,VALID,0,VALID,90.3652,VALID,0,VALID,23.6622,VALID,114,VALID,0.571875,
2010-10-27, 01:19:05,VALID,999.452,VALID,0,VALID,90.2431,VALID,0,VALID,23.6835,VALID,98,VALID,0.884375,
2010-10-27, 01:20:05,VALID,999.459,VALID,0,VALID,90.1363,VALID,0,VALID,23.6817,VALID,94,VALID,0.246094,
2010-10-27, 01:21:05,VALID,999.474,VALID,0,VALID,90.0448,VALID,0,VALID,23.6622,VALID,94,VALID,0.201562,
2010-10-27, 01:22:05,VALID,999.469,VALID,0,VALID,90.0371,VALID,0,VALID,23.6835,VALID,94,VALID,0.202344,
2010-10-27, 01:23:05,VALID,999.469,VALID,0,VALID,90.1287,VALID,0,VALID,23.6427,VALID,94,VALID,0.391406,
2010-10-27, 01:24:05,VALID,999.475,VALID,0,VALID,90.205,VALID,0,VALID,23.6445,VALID,94,VALID,0.254297,
2010-10-27, 01:25:05,VALID,999.456,VALID,0,VALID,90.2737,VALID,0,VALID,23.6232,VALID,94,VALID,0.250781,
2010-10-27, 01:26:05,VALID,999.439,VALID,0,VALID,90.35,VALID,0,VALID,23.6427,VALID,94,VALID,0.352344,
2010-10-27, 01:27:05,VALID,999.443,VALID,0,VALID,90.4339,VALID,0,VALID,23.6232,VALID,94,VALID,0.320703,
2010-10-27, 01:28:05,VALID,999.414,VALID,0,VALID,90.5636,VALID,0,VALID,23.6232,VALID,94,VALID,0.287891,
2010-10-27, 01:29:04,VALID,999.419,VALID,0,VALID,90.5712,VALID,0,VALID,23.6232,VALID,94,VALID,0.333594,
2010-10-27, 01:30:04,VALID,999.417,VALID,0,VALID,90.5712,VALID,0,VALID,23.6232,VALID,94,VALID,0.186719,
2010-10-27, 01:31:04,VALID,999.429,VALID,0,VALID,90.5102,VALID,0,VALID,23.6232,VALID,94,VALID,0.367578,
2010-10-27, 01:32:04,VALID,999.377,VALID,0,VALID,90.2508,VALID,0,VALID,23.6232,VALID,94,VALID,0.275,
2010-10-27, 01:33:04,VALID,999.385,VALID,0,VALID,90.0295,VALID,0,VALID,23.6427,VALID,94,VALID,0.0539063,
2010-10-27, 01:34:04,VALID,999.373,VALID,0,VALID,89.9151,VALID,0,VALID,23.6427,VALID,94,VALID,0.00507812,
2010-10-27, 01:35:04,VALID,999.37,VALID,0,VALID,89.8159,VALID,0,VALID,23.6445,VALID,94,VALID,0.0105469,
2010-10-27, 01:36:04,VALID,999.334,VALID,0,VALID,89.7625,VALID,0,VALID,23.6232,VALID,94,VALID,0,
2010-10-27, 01:37:04,VALID,999.347,VALID,0,VALID,89.793,VALID,0,VALID,23.625,VALID,94,VALID,0.370703,
2010-10-27, 01:38:04,VALID,999.344,VALID,0,VALID,89.8083,VALID,0,VALID,23.625,VALID,94,VALID,0.515625,
2010-10-27, 01:39:04,VALID,999.318,VALID,0,VALID,89.8922,VALID,0,VALID,23.6214,VALID,114,VALID,0.747656,
2010-10-27, 01:40:04,VALID,999.344,VALID,0,VALID,89.8083,VALID,0,VALID,23.6214,VALID,114,VALID,0.726563,
2010-10-27, 01:41:04,VALID,999.348,VALID,0,VALID,89.732,VALID,0,VALID,23.6427,VALID,114,VALID,0.658594,
2010-10-27, 01:42:04,VALID,999.337,VALID,0,VALID,89.7625,VALID,0,VALID,23.6622,VALID,133,VALID,1.00703,
2010-10-27, 01:43:04,VALID,999.335,VALID,0,VALID,89.732,VALID,0,VALID,23.6604,VALID,139,VALID,0.747266,
2010-10-27, 01:44:04,VALID,999.297,VALID,0,VALID,89.7396,VALID,0,VALID,23.6604,VALID,139,VALID,0.878125,
2010-10-27, 01:45:04,VALID,999.265,VALID,0,VALID,89.7243,VALID,0,VALID,23.6604,VALID,139,VALID,0.634375,
2010-10-27, 01:46:04,VALID,999.274,VALID,0,VALID,89.8159,VALID,0,VALID,23.6604,VALID,139,VALID,0.483984,
2010-10-27, 01:47:04,VALID,999.233,VALID,0,VALID,89.8769,VALID,0,VALID,23.6799,VALID,139,VALID,0.431641,
2010-10-27, 01:48:04,VALID,999.192,VALID,0,VALID,89.8998,VALID,0,VALID,23.6994,VALID,139,VALID,0.181641,
2010-10-27, 01:49:04,VALID,999.192,VALID,0,VALID,89.8769,VALID,0.112286,VALID,23.7189,VALID,139,VALID,0.164844,
2010-10-27, 01:50:04,VALID,999.164,VALID,0,VALID,89.8311,VALID,0,VALID,23.6994,VALID,139,VALID,0.135156,
2010-10-27, 01:51:04,VALID,999.122,VALID,0,VALID,89.8693,VALID,0,VALID,23.6994,VALID,139,VALID,0.146484,
2010-10-27, 01:52:04,VALID,999.106,VALID,0,VALID,89.8922,VALID,0,VALID,23.6994,VALID,139,VALID,0,
2010-10-27, 01:53:04,VALID,999.097,VALID,0,VALID,89.8846,VALID,0.112286,VALID,23.6994,VALID,139,VALID,0,
2010-10-27, 01:54:04,VALID,999.103,VALID,0,VALID,89.8846,VALID,0,VALID,23.6817,VALID,139,VALID,0,
2010-10-27, 01:55:04,VALID,999.094,VALID,0,VALID,89.8998,VALID,0,VALID,23.6622,VALID,139,VALID,0,
2010-10-27, 01:56:04,VALID,999.108,VALID,0,VALID,89.9837,VALID,0,VALID,23.6427,VALID,139,VALID,0,
2010-10-27, 01:57:04,VALID,999.111,VALID,0,VALID,90.0524,VALID,0,VALID,23.6445,VALID,139,VALID,0,
2010-10-27, 01:58:04,VALID,999.08,VALID,0,VALID,90.1974,VALID,0,VALID,23.6232,VALID,139,VALID,0.238672,
2010-10-27, 01:59:04,VALID,999.073,VALID,0,VALID,90.3881,VALID,0,VALID,23.6232,VALID,139,VALID,0.23125,
2010-10-27, 02:00:04,VALID,999.13,VALID,0,VALID,90.4949,VALID,0,VALID,23.6036,VALID,139,VALID,0.344141,
2010-10-27, 02:01:04,VALID,999.17,VALID,0,VALID,90.556,VALID,0,VALID,23.6036,VALID,139,VALID,0.330859,
2010-10-27, 02:02:04,VALID,999.126,VALID,0,VALID,90.5636,VALID,0,VALID,23.6036,VALID,139,VALID,0.330859,
2010-10-27, 02:03:04,VALID,999.123,VALID,0,VALID,90.6399,VALID,0,VALID,23.6036,VALID,138,VALID,0.457422,
2010-10-27, 02:04:04,VALID,999.14,VALID,0,VALID,90.7085,VALID,0,VALID,23.6036,VALID,121,VALID,0.677344,
2010-10-27, 02:05:04,VALID,999.118,VALID,0,VALID,90.7391,VALID,0,VALID,23.6036,VALID,113,VALID,0.648828,
2010-10-27, 02:06:04,VALID,999.072,VALID,0,VALID,90.8306,VALID,0,VALID,23.6036,VALID,113,VALID,0.36875,
2010-10-27, 02:07:04,VALID,999.064,VALID,0,VALID,90.8383,VALID,0,VALID,23.6036,VALID,113,VALID,0.404297,
2010-10-27, 02:08:04,VALID,999.081,VALID,0,VALID,90.8459,VALID,0,VALID,23.6036,VALID,113,VALID,0.360547,
2010-10-27, 02:09:04,VALID,999.064,VALID,0,VALID,90.8306,VALID,0,VALID,23.5823,VALID,113,VALID,0.244922,
2010-10-27, 02:10:04,VALID,999.065,VALID,0,VALID,90.8459,VALID,0,VALID,23.5841,VALID,113,VALID,0.147266,
2010-10-27, 02:11:04,VALID,999.038,VALID,0,VALID,90.8535,VALID,0,VALID,23.5841,VALID,113,VALID,0.181641,
2010-10-27, 02:12:04,VALID,999.059,VALID,0,VALID,90.8688,VALID,0,VALID,23.5646,VALID,113,VALID,0.197266,
2010-10-27, 02:13:04,VALID,999.045,VALID,0,VALID,90.9069,VALID,0,VALID,23.5841,VALID,113,VALID,0.275,
2010-10-27, 02:14:04,VALID,999.043,VALID,0,VALID,90.968,VALID,0,VALID,23.6036,VALID,113,VALID,0.233203,
2010-10-27, 02:15:04,VALID,999.012,VALID,0,VALID,90.9909,VALID,0,VALID,23.6036,VALID,113,VALID,0.1,
2010-10-27, 02:16:04,VALID,999.016,VALID,0,VALID,91.029,VALID,0,VALID,23.6036,VALID,113,VALID,0.0113281,
2010-10-27, 02:17:04,VALID,998.974,VALID,0,VALID,91.0443,VALID,0,VALID,23.6036,VALID,113,VALID,0.138281,
2010-10-27, 02:18:04,VALID,998.95,VALID,0,VALID,91.029,VALID,0,VALID,23.6036,VALID,113,VALID,0.148047,
2010-10-27, 02:19:04,VALID,998.96,VALID,0,VALID,90.9909,VALID,0,VALID,23.6232,VALID,113,VALID,0.235156,
2010-10-27, 02:20:04,VALID,998.919,VALID,0,VALID,90.9298,VALID,0,VALID,23.6232,VALID,113,VALID,0.183203,
2010-10-27, 02:21:04,VALID,998.891,VALID,0,VALID,90.9069,VALID,0,VALID,23.6232,VALID,113,VALID,0.151953,
2010-10-27, 02:22:04,VALID,998.904,VALID,0,VALID,90.8535,VALID,0,VALID,23.5823,VALID,113,VALID,0.0105469,
2010-10-27, 02:23:04,VALID,998.897,VALID,0,VALID,90.678,VALID,0,VALID,23.5451,VALID,113,VALID,0.220703,
2010-10-27, 02:24:04,VALID,998.892,VALID,0,VALID,90.6017,VALID,0,VALID,23.4848,VALID,113,VALID,0.173438,
2010-10-27, 02:25:04,VALID,998.884,VALID,0,VALID,90.6933,VALID,0,VALID,23.4475,VALID,113,VALID,0,
2010-10-27, 02:26:04,VALID,998.904,VALID,0,VALID,90.7849,VALID,0,VALID,23.428,VALID,113,VALID,0,
2010-10-27, 02:27:04,VALID,998.907,VALID,0,VALID,90.9909,VALID,0,VALID,23.4085,VALID,113,VALID,0.254687,
2010-10-27, 02:28:04,VALID,998.853,VALID,0,VALID,91.1663,VALID,0,VALID,23.3872,VALID,113,VALID,0.155859,
2010-10-27, 02:29:04,VALID,998.887,VALID,0,VALID,91.2731,VALID,0,VALID,23.389,VALID,113,VALID,0.209766,
2010-10-27, 02:30:04,VALID,998.843,VALID,0,VALID,91.4257,VALID,0,VALID,23.3677,VALID,113,VALID,0.478906,
2010-10-27, 02:31:04,VALID,998.86,VALID,0,VALID,91.5631,VALID,0,VALID,23.3695,VALID,118,VALID,0.648047,
2010-10-27, 02:32:04,VALID,998.859,VALID,0,VALID,91.6394,VALID,0,VALID,23.389,VALID,127,VALID,0.933594,
2010-10-27, 02:33:04,VALID,998.873,VALID,0,VALID,91.708,VALID,0,VALID,23.428,VALID,127,VALID,0.985547,
2010-10-27, 02:34:04,VALID,998.871,VALID,0,VALID,91.6928,VALID,0,VALID,23.4866,VALID,127,VALID,1.03906,
2010-10-27, 02:35:04,VALID,998.915,VALID,0,VALID,91.5173,VALID,0,VALID,23.5061,VALID,127,VALID,0.966016,
2010-10-27, 02:36:04,VALID,998.927,VALID,0,VALID,91.235,VALID,0,VALID,23.5061,VALID,126,VALID,0.898828,
2010-10-27, 02:37:04,VALID,998.91,VALID,0,VALID,91.235,VALID,0,VALID,23.4848,VALID,121,VALID,0.917969,
2010-10-27, 02:38:04,VALID,998.927,VALID,0,VALID,91.2655,VALID,0,VALID,23.5256,VALID,121,VALID,0.816797,
2010-10-27, 02:39:04,VALID,998.904,VALID,0,VALID,91.3189,VALID,0.112286,VALID,23.5238,VALID,121,VALID,0.651953,
2010-10-27, 02:40:04,VALID,998.885,VALID,0,VALID,91.3266,VALID,0.112286,VALID,23.5238,VALID,121,VALID,0.428516,
2010-10-27, 02:41:04,VALID,998.867,VALID,0,VALID,91.3647,VALID,0.112286,VALID,23.5043,VALID,121,VALID,0.521484,
2010-10-27, 02:42:04,VALID,998.824,VALID,0,VALID,91.3418,VALID,0.112286,VALID,23.4848,VALID,121,VALID,0.374219,
2010-10-27, 02:43:04,VALID,998.8,VALID,0,VALID,91.2884,VALID,0.112286,VALID,23.4653,VALID,121,VALID,0.248828,
2010-10-27, 02:44:04,VALID,998.783,VALID,0,VALID,91.2808,VALID,0.112286,VALID,23.4653,VALID,121,VALID,0.339453,
2010-10-27, 02:45:04,VALID,998.755,VALID,0,VALID,91.3037,VALID,0.112286,VALID,23.4653,VALID,121,VALID,0.230469,
2010-10-27, 02:46:04,VALID,998.716,VALID,0,VALID,91.2197,VALID,0.112286,VALID,23.4848,VALID,121,VALID,0.304688,
2010-10-27, 02:47:04,VALID,998.727,VALID,0,VALID,91.0519,VALID,0.112286,VALID,23.483,VALID,122,VALID,0.298047,
2010-10-27, 02:48:04,VALID,998.729,VALID,0,VALID,90.8001,VALID,0.112286,VALID,23.5043,VALID,122,VALID,0.539453,
2010-10-27, 02:49:04,VALID,998.764,VALID,0,VALID,90.3957,VALID,0.112286,VALID,23.5043,VALID,122,VALID,0.911719,
2010-10-27, 02:50:04,VALID,998.778,VALID,0,VALID,89.9151,VALID,0.112286,VALID,23.522,VALID,124,VALID,0.89375,
2010-10-27, 02:51:04,VALID,998.836,VALID,0,VALID,89.4191,VALID,0,VALID,23.5823,VALID,133,VALID,0.900781,
2010-10-27, 02:52:04,VALID,998.853,VALID,0,VALID,89.1216,VALID,0,VALID,23.6019,VALID,133,VALID,0.794531,
2010-10-27, 02:53:04,VALID,998.867,VALID,0,VALID,88.969,VALID,0,VALID,23.6019,VALID,133,VALID,1.07695,
2010-10-27, 02:54:04,VALID,998.882,VALID,0,VALID,88.9461,VALID,0,VALID,23.5628,VALID,128,VALID,0.968359,
2010-10-27, 02:55:04,VALID,998.914,VALID,0,VALID,88.824,VALID,0,VALID,23.5841,VALID,124,VALID,1.6457,
2010-10-27, 02:56:04,VALID,998.909,VALID,0,VALID,88.3434,VALID,0,VALID,23.5823,VALID,125,VALID,1.42188,
2010-10-27, 02:57:04,VALID,998.936,VALID,0,VALID,88.0687,VALID,0,VALID,23.6427,VALID,122,VALID,0.926562,
2010-10-27, 02:58:04,VALID,998.968,VALID,0,VALID,87.9848,VALID,0,VALID,23.6622,VALID,135,VALID,1.32773,
2010-10-27, 02:59:04,VALID,998.967,VALID,0,VALID,87.8932,VALID,0,VALID,23.6622,VALID,124,VALID,1.30313,
2010-10-27, 03:00:04,VALID,999.004,VALID,0,VALID,87.7254,VALID,0,VALID,23.6817,VALID,121,VALID,1.36328,
2010-10-27, 03:01:04,VALID,999.008,VALID,0,VALID,87.8017,VALID,0,VALID,23.7012,VALID,137,VALID,1.13125,
2010-10-27, 03:02:04,VALID,999.017,VALID,0,VALID,87.8932,VALID,0,VALID,23.7207,VALID,135,VALID,1.07383,
2010-10-27, 03:03:04,VALID,998.993,VALID,0,VALID,87.9924,VALID,0,VALID,23.7207,VALID,136,VALID,0.627734,
2010-10-27, 03:04:04,VALID,998.972,VALID,0,VALID,88.1068,VALID,0,VALID,23.7012,VALID,136,VALID,0.341797,
2010-10-27, 03:05:04,VALID,998.982,VALID,0,VALID,88.29,VALID,0,VALID,23.7012,VALID,136,VALID,0.461719,
2010-10-27, 03:06:04,VALID,998.954,VALID,0,VALID,88.4883,VALID,0,VALID,23.7207,VALID,136,VALID,0.453516,
2010-10-27, 03:07:04,VALID,998.962,VALID,0,VALID,88.4349,VALID,0,VALID,23.7597,VALID,136,VALID,0.255469,
2010-10-27, 03:08:04,VALID,998.935,VALID,0,VALID,88.4426,VALID,0,VALID,23.8006,VALID,136,VALID,0.255859,
2010-10-27, 03:09:04,VALID,998.946,VALID,0,VALID,88.2976,VALID,0,VALID,23.7793,VALID,136,VALID,0,
2010-10-27, 03:10:04,VALID,998.985,VALID,0,VALID,88.3815,VALID,0,VALID,23.7597,VALID,136,VALID,0,
2010-10-27, 03:11:04,VALID,999.008,VALID,0,VALID,88.618,VALID,0,VALID,23.7597,VALID,136,VALID,0,
2010-10-27, 03:12:04,VALID,999.022,VALID,0,VALID,88.618,VALID,0,VALID,23.7207,VALID,136,VALID,0.200781,
2010-10-27, 03:13:04,VALID,999.046,VALID,0,VALID,88.6104,VALID,0,VALID,23.7012,VALID,136,VALID,0.0957031,
2010-10-27, 03:14:04,VALID,999.019,VALID,0,VALID,88.6333,VALID,0,VALID,23.6817,VALID,136,VALID,0.164844,
2010-10-27, 03:15:04,VALID,999.061,VALID,0,VALID,88.6714,VALID,0,VALID,23.6817,VALID,136,VALID,0.496094,
2010-10-27, 03:16:04,VALID,999.046,VALID,0,VALID,88.702,VALID,0,VALID,23.6622,VALID,91,VALID,0.662891,
2010-10-27, 03:17:04,VALID,999.034,VALID,0,VALID,88.6638,VALID,0,VALID,23.6622,VALID,48,VALID,0.727344,
2010-10-27, 03:18:04,VALID,999.018,VALID,0,VALID,88.6867,VALID,0,VALID,23.6427,VALID,29,VALID,0.780859,
2010-10-27, 03:19:04,VALID,999.007,VALID,0,VALID,88.9232,VALID,0,VALID,23.6036,VALID,53,VALID,0.898828,
2010-10-27, 03:20:04,VALID,998.964,VALID,0,VALID,89.1521,VALID,0,VALID,23.6054,VALID,48,VALID,0.723437,
2010-10-27, 03:21:04,VALID,998.949,VALID,0,VALID,89.2971,VALID,0,VALID,23.5451,VALID,40,VALID,0.413672,
2010-10-27, 03:22:04,VALID,998.917,VALID,0,VALID,89.4802,VALID,0,VALID,23.5256,VALID,40,VALID,0.566406,
2010-10-27, 03:23:04,VALID,998.891,VALID,0,VALID,89.5565,VALID,0,VALID,23.5256,VALID,39,VALID,0.536719,
2010-10-27, 03:24:04,VALID,998.878,VALID,0,VALID,89.6023,VALID,0,VALID,23.5433,VALID,37,VALID,0.38125,
2010-10-27, 03:25:04,VALID,998.894,VALID,0,VALID,89.6099,VALID,0,VALID,23.5646,VALID,37,VALID,0.655859,
2010-10-27, 03:26:04,VALID,998.849,VALID,0,VALID,89.6557,VALID,0.112286,VALID,23.5433,VALID,37,VALID,0.64375,
2010-10-27, 03:27:04,VALID,998.868,VALID,0,VALID,89.9151,VALID,0,VALID,23.5433,VALID,38,VALID,1.02305,
2010-10-27, 03:28:04,VALID,998.819,VALID,0,VALID,90.0982,VALID,0,VALID,23.5841,VALID,40,VALID,0.920313,
2010-10-27, 03:29:04,VALID,998.793,VALID,0,VALID,90.1668,VALID,0.112286,VALID,23.5823,VALID,45,VALID,0.946484,
2010-10-27, 03:30:04,VALID,998.793,VALID,0,VALID,90.1134,VALID,0,VALID,23.5823,VALID,48,VALID,0.929688,
2010-10-27, 03:31:04,VALID,998.724,VALID,0,VALID,89.9685,VALID,0,VALID,23.6019,VALID,50,VALID,0.744531,
2010-10-27, 03:32:04,VALID,998.704,VALID,0,VALID,89.8998,VALID,0,VALID,23.5823,VALID,50,VALID,0.439063,
2010-10-27, 03:33:04,VALID,998.664,VALID,0,VALID,90.0295,VALID,0,VALID,23.5823,VALID,34,VALID,0.671484,
2010-10-27, 03:34:04,VALID,998.612,VALID,0,VALID,90.0753,VALID,0.112286,VALID,23.5823,VALID,19,VALID,0.777734,
2010-10-27, 03:35:04,VALID,998.683,VALID,0,VALID,90.1974,VALID,0.112286,VALID,23.6019,VALID,351,VALID,0.744141,
2010-10-27, 03:36:04,VALID,998.638,VALID,0,VALID,90.266,VALID,0,VALID,23.5823,VALID,329,VALID,0.66875,
2010-10-27, 03:37:04,VALID,998.63,VALID,0,VALID,90.3271,VALID,0.112286,VALID,23.5823,VALID,329,VALID,0.713281,
2010-10-27, 03:38:04,VALID,998.62,VALID,0,VALID,90.3576,VALID,0,VALID,23.5628,VALID,329,VALID,0.674609,
2010-10-27, 03:39:04,VALID,998.65,VALID,0,VALID,90.4034,VALID,0,VALID,23.5646,VALID,329,VALID,0.579687,
2010-10-27, 03:40:04,VALID,998.647,VALID,0,VALID,90.4491,VALID,0,VALID,23.5646,VALID,329,VALID,0.511328,
2010-10-27, 03:41:04,VALID,998.634,VALID,0,VALID,90.5026,VALID,0,VALID,23.5646,VALID,329,VALID,0.275391,
2010-10-27, 03:42:04,VALID,998.651,VALID,0,VALID,90.5788,VALID,0,VALID,23.5451,VALID,329,VALID,0.320703,
2010-10-27, 03:43:04,VALID,998.647,VALID,0,VALID,90.6094,VALID,0,VALID,23.5256,VALID,329,VALID,0.261328,
2010-10-27, 03:44:04,VALID,998.641,VALID,0,VALID,90.6628,VALID,0,VALID,23.5274,VALID,329,VALID,0.159375,